Location: Newark
(15.4608°S, 41.1635°W)
Time: 08:28:11
(UTC+00:00)

Transit 4A - Pass Details

Date: 10 March 2021
Orbit: 869 x 975 km, 66.8° (Epoch: 22 April)

Event Time Altitude Azimuth Distance (km) Brightness Sun altitude
Rises 21:26:38 0° 4° (N) 3,442 10.8 -6.6°
Reaches altitude 10° 21:29:26 10° 15° (NNE) 2,505 10.0 -7.3°
Maximum altitude 21:34:16 28° 73° (ENE) 1,575 8.6 -8.5°
Drops below altitude 10° 21:39:09 10° 130° (SE) 2,530 9.8 -9.7°
Sets 21:41:58 0° 141° (SE) 3,482 10.6 -10.3°
